Weather History for KSAT - February, 2014

Change the Weather History Date:

Saturday, February 1, 2014

  Actual Average Record
Temperature  
Mean Temperature 73 °F 53 °F  
Max Temperature 80 °F 65 °F 85 °F (1963)
Min Temperature 66 °F 42 °F 15 °F (1951)
Degree Days  
Heating Degree Days 0 12  
Month to date heating degree days 0 12  
Since 1 July heating degree days 1068 1030  
Cooling Degree Days 8 0  
Month to date cooling degree days 8 0  
Year to date cooling degree days 11 7  
Growing Degree Days 23 (Base 50)    
Moisture  
Dew Point 61 °F    
Average Humidity 70    
Maximum Humidity 87    
Minimum Humidity 52    
Precipitation  
Precipitation T in 0.07 in 0.77 in (2000)
Month to date precipitation T 0.07  
Year to date precipitation 0.23 1.83  
Snow  
Snow 0.00 in - - ()
Month to date snowfall 0.0  
Since 1 July snowfall 0.1  
Snow Depth 0.00 in    
Sea Level Pressure  
Sea Level Pressure 29.78 in    
Wind  
Wind Speed 8 mph (SE)    
Max Wind Speed 16 mph    
Max Gust Speed 21 mph    
Visibility 10 miles    
Events      
T = Trace of Precipitation, MM = Missing Value Source: NWS Daily Summary

Daily Weather History Graph

Daily Weather History Graph

Search for Another Location

Airport or City:

Trip Planner

Search our weather history database for the weather conditions in past years. The results will help you decide how hot, cold, wet, or windy it might be!

Date:

Astronomy

Feb. 01, 2014 Rise Set
Actual Time 7:23 AM CST 6:11 PM CST
Civil Twilight 6:58 AM CST 6:36 PM CST
Nautical Twilight 6:29 AM CST 7:05 PM CST
Astronomical Twilight 6:01 AM CST 7:33 PM CST
Moon 8:26 AM CST (2/1) 8:33 PM CST (2/1)
Length of Visible Light 11h 38m
Length of Day
10h 48m
Waxing Crescent, 5% of the Moon is Illuminated
Feb 1
Waxing Crescent
Feb 6
First Quarter
Feb 14
Full
Feb 22
Last Quarter
Mar 1
New

Hourly Weather History & Observations

Time (CST) Temp. Dew Point Humidity Pressure Visibility Wind Dir Wind Speed Gust Speed Precip Events Conditions
12:51 AM 66.0 °F 60.1 °F 81% 29.79 in 10.0 mi SSE 9.2 mph - N/A   Overcast
12:58 AM 66.2 °F 60.8 °F 83% 29.83 in 10.0 mi SSE 10.4 mph - N/A   Overcast
1:08 AM 66.2 °F 60.8 °F 83% 29.83 in 10.0 mi SSE 10.4 mph - N/A   Overcast
1:48 AM 66.2 °F 60.8 °F 83% 29.82 in 10.0 mi SSE 13.8 mph - N/A   Overcast
1:51 AM 66.9 °F 60.1 °F 79% 29.78 in 10.0 mi South 11.5 mph - N/A   Overcast
2:51 AM 66.0 °F 61.0 °F 84% 29.76 in 10.0 mi SSE 6.9 mph - N/A   Overcast
3:51 AM 66.0 °F 61.0 °F 84% 29.75 in 10.0 mi SSE 9.2 mph - 0.00 in   Light Drizzle
4:51 AM 66.9 °F 61.0 °F 81% 29.74 in 10.0 mi SSE 9.2 mph - 0.00 in   Overcast
5:51 AM 66.9 °F 61.0 °F 81% 29.75 in 10.0 mi SSE 10.4 mph - N/A   Overcast
6:51 AM 66.9 °F 61.0 °F 81% 29.77 in 10.0 mi SSE 9.2 mph - N/A   Overcast
7:39 AM 66.2 °F 62.6 °F 88% 29.81 in 10.0 mi SSE 8.1 mph - N/A   Overcast
7:51 AM 66.9 °F 62.1 °F 84% 29.78 in 10.0 mi SSE 8.1 mph - N/A   Overcast
8:51 AM 68.0 °F 62.1 °F 81% 29.79 in 10.0 mi SSE 10.4 mph - N/A   Overcast
9:20 AM 69.8 °F 62.6 °F 78% 29.84 in 10.0 mi SSE 10.4 mph - N/A   Overcast
9:38 AM 69.8 °F 62.6 °F 78% 29.84 in 10.0 mi SSE 11.5 mph - N/A   Overcast
9:51 AM 70.0 °F 62.1 °F 76% 29.81 in 10.0 mi SSE 11.5 mph - N/A   Overcast
10:51 AM 73.0 °F 62.1 °F 68% 29.80 in 10.0 mi South 11.5 mph - N/A   Mostly Cloudy
11:30 AM 71.6 °F 60.8 °F 69% 29.84 in 10.0 mi South 12.7 mph - N/A   Overcast
11:51 AM 73.0 °F 61.0 °F 66% 29.79 in 10.0 mi South 9.2 mph - N/A   Overcast
12:51 PM 75.0 °F 60.1 °F 60% 29.76 in 10.0 mi South 9.2 mph - N/A   Overcast
1:51 PM 75.9 °F 60.1 °F 58% 29.73 in 10.0 mi SSE 8.1 mph - N/A   Overcast
2:51 PM 77.0 °F 59.0 °F 54% 29.71 in 10.0 mi SSE 5.8 mph - N/A   Mostly Cloudy
3:51 PM 78.1 °F 59.0 °F 52% 29.71 in 10.0 mi Variable 4.6 mph - N/A   Mostly Cloudy
4:51 PM 78.1 °F 59.0 °F 52% 29.71 in 10.0 mi ESE 6.9 mph - N/A   Mostly Cloudy
5:51 PM 75.0 °F 59.0 °F 57% 29.72 in 10.0 mi East 6.9 mph - N/A   Mostly Cloudy
6:51 PM 73.0 °F 59.0 °F 61% 29.73 in 10.0 mi NE 4.6 mph - N/A   Mostly Cloudy
7:51 PM 73.0 °F 61.0 °F 66% 29.75 in 10.0 mi ENE 6.9 mph - N/A   Mostly Cloudy
8:51 PM 71.1 °F 63.0 °F 75% 29.78 in 10.0 mi East 8.1 mph - N/A   Mostly Cloudy
9:42 PM 69.8 °F 62.6 °F 78% 29.84 in 10.0 mi East 5.8 mph - N/A   Mostly Cloudy
9:51 PM 70.0 °F 63.0 °F 78% 29.79 in 10.0 mi East 5.8 mph - N/A   Mostly Cloudy
9:58 PM 69.8 °F 64.4 °F 83% 29.83 in 9.0 mi East 5.8 mph - N/A   Mostly Cloudy
10:47 PM 69.8 °F 64.4 °F 83% 29.83 in 8.0 mi East 6.9 mph - N/A   Overcast
10:51 PM 69.1 °F 64.0 °F 84% 29.79 in 8.0 mi East 9.2 mph - N/A   Overcast
11:51 PM 69.1 °F 64.0 °F 84% 29.80 in 7.0 mi ESE 10.4 mph - N/A   Overcast